Weather History for KBKW - September, 2012

Change the Weather History Date:

Friday, September 7, 2012

  Actual Average Record
Temperature  
Mean Temperature 74 °F 66 °F  
Max Temperature 85 °F 76 °F 89 °F (2007)
Min Temperature 62 °F 57 °F 34 °F (1940)
Degree Days  
Heating Degree Days 0 2  
Month to date heating degree days 0 9  
Since 1 July heating degree days 3 30  
Cooling Degree Days 9 3  
Month to date cooling degree days 71 24  
Year to date cooling degree days 754 517  
Growing Degree Days 23 (Base 50)    
Moisture  
Dew Point 62 °F    
Average Humidity 67    
Maximum Humidity 93    
Minimum Humidity 40    
Precipitation  
Precipitation 0.00 in 0.10 in 1.20 in (1910)
Month to date precipitation 1.48 0.69  
Year to date precipitation 32.19 30.35  
Snow  
Snow 0.00 in - - ()
Month to date snowfall 0.0  
Since 1 September snowfall 0.0  
Snow Depth 0.00 in    
Sea Level Pressure  
Sea Level Pressure 29.94 in    
Wind  
Wind Speed 4 mph (South)    
Max Wind Speed 10 mph    
Max Gust Speed 15 mph    
Visibility 10 miles    
Events      
T = Trace of Precipitation, MM = Missing Value Source: NWS Daily Summary

Daily Weather History Graph

Daily Weather History Graph

Search for Another Location

Airport or City:

Trip Planner

Search our weather history database for the weather conditions in past years. The results will help you decide how hot, cold, wet, or windy it might be!

Date:

Astronomy

Sep. 07, 2012 Rise Set
Actual Time 7:00 AM EDT 7:43 PM EDT
Civil Twilight 6:33 AM EDT 8:10 PM EDT
Nautical Twilight 6:02 AM EDT 8:41 PM EDT
Astronomical Twilight 5:29 AM EDT 9:14 PM EDT
Moon 11:46 PM EDT (9/7) 1:43 PM EDT (9/7)
Length of Visible Light 13h 37m
Length of Day
12h 43m
Waning Gibbous, 58% of the Moon is Illuminated
Sep 7
Waning Gibbous
Sep 8
Last Quarter
Sep 15
New
Sep 22
First Quarter
Sep 29
Full

Hourly Weather History & Observations

Time (EDT) Temp. Heat Index Dew Point Humidity Pressure Visibility Wind Dir Wind Speed Gust Speed Precip Events Conditions
12:51 AM 64.9 °F - 63.0 °F 93% 29.97 in 10.0 mi SSW 3.5 mph - N/A   Clear
1:51 AM 64.9 °F - 63.0 °F 93% 29.97 in 10.0 mi Calm Calm - N/A   Clear
2:11 AM 64.4 °F - 62.6 °F 94% 30.07 in 10.0 mi Calm Calm - N/A   Mostly Cloudy
2:43 AM 66.2 °F - 64.4 °F 94% 30.06 in 10.0 mi South 3.5 mph - N/A   Overcast
2:51 AM 66.0 °F - 64.9 °F 96% 29.95 in 10.0 mi Calm Calm - N/A   Overcast
3:51 AM 66.9 °F - 64.9 °F 93% 29.94 in 10.0 mi Calm Calm - N/A   Overcast
4:51 AM 66.0 °F - 64.0 °F 93% 29.94 in 10.0 mi Calm Calm - N/A   Mostly Cloudy
5:35 AM 64.4 °F - 62.6 °F 94% 30.04 in 10.0 mi Calm Calm - N/A   Scattered Clouds
5:51 AM 64.0 °F - 62.1 °F 93% 29.95 in 10.0 mi Calm Calm - N/A   Partly Cloudy
6:11 AM 64.4 °F - 62.6 °F 94% 30.05 in 10.0 mi Calm Calm - N/A   Mostly Cloudy
6:19 AM 64.4 °F - 62.6 °F 94% 30.05 in 10.0 mi Calm Calm - N/A   Mostly Cloudy
6:51 AM 64.0 °F - 62.1 °F 93% 29.96 in 10.0 mi Calm Calm - N/A   Overcast
7:51 AM 64.0 °F - 62.1 °F 93% 29.98 in 10.0 mi SSE 3.5 mph - N/A   Overcast
8:07 AM 64.4 °F - 64.4 °F 100% 30.08 in 10.0 mi Calm Calm - N/A   Scattered Clouds
8:51 AM 68.0 °F - 64.9 °F 90% 29.99 in 10.0 mi SSE 4.6 mph - N/A   Clear
9:51 AM 71.1 °F - 66.0 °F 84% 29.99 in 10.0 mi SSE 3.5 mph - N/A   Clear
10:51 AM 75.9 °F - 66.0 °F 71% 29.97 in 10.0 mi SSE 4.6 mph - N/A   Clear
11:51 AM 80.1 °F 81.7 °F 64.0 °F 58% 29.95 in 10.0 mi Variable 3.5 mph - N/A   Clear
12:51 PM 82.0 °F 82.7 °F 61.0 °F 49% 29.94 in 10.0 mi South 4.6 mph - N/A   Clear
1:51 PM 84.0 °F 83.3 °F 57.0 °F 40% 29.91 in 10.0 mi West 6.9 mph - N/A   Clear
2:51 PM 82.9 °F 82.1 °F 55.9 °F 39% 29.89 in 10.0 mi Variable 5.8 mph - N/A   Partly Cloudy
3:51 PM 82.0 °F 82.1 °F 59.0 °F 45% 29.88 in 10.0 mi Calm Calm - N/A   Scattered Clouds
4:51 PM 84.9 °F 85.0 °F 61.0 °F 44% 29.86 in 10.0 mi West 8.1 mph - N/A   Mostly Cloudy
5:51 PM 82.9 °F 82.8 °F 59.0 °F 44% 29.86 in 10.0 mi SW 5.8 mph - N/A   Clear
6:51 PM 81.0 °F 81.6 °F 60.1 °F 49% 29.86 in 10.0 mi WSW 3.5 mph - N/A   Clear
7:51 PM 75.9 °F - 61.0 °F 60% 29.85 in 10.0 mi SSE 6.9 mph - N/A   Scattered Clouds
8:51 PM 73.0 °F - 60.1 °F 64% 29.82 in 10.0 mi SSE 5.8 mph - N/A   Partly Cloudy
9:51 PM 72.0 °F - 59.0 °F 64% 29.82 in 10.0 mi SSE 6.9 mph - N/A   Clear
10:51 PM 72.0 °F - 62.1 °F 71% 29.83 in 10.0 mi SSE 9.2 mph - N/A   Clear
11:51 PM 72.0 °F - 63.0 °F 73% 29.80 in 10.0 mi SSE 8.1 mph - N/A   Clear